This is the latest recevied weather packets stored in our database for station/object ES0THZ-13. If no packets are shown the sender has not sent any weather packets the latest 10 day(s).
| Time | Temp. | Humidity | Pressure | Rain* | Wind** | Luminosity | Snow |
|---|---|---|---|---|---|---|---|
| 1777753777 | 10° C | 69% | 1006.4 hPa | - | - | - | - |
| 1777752656 | 10° C | 69% | 1006.7 hPa | - | - | - | - |
| 1777751556 | 10.56° C | 68% | 1006.2 hPa | - | - | - | - |
| 1777750586 | 10.56° C | 67% | 1006.3 hPa | - | - | - | - |
| 1777749561 | 11.11° C | 66% | 1006.8 hPa | - | - | - | - |
| 1777748391 | 11.11° C | 66% | 1006.9 hPa | - | - | - | - |
| 1777747309 | 11.11° C | 65% | 1007.1 hPa | - | - | - | - |
| 1777746251 | 11.11° C | 64% | 1006.8 hPa | - | - | - | - |
| 1777745116 | 11.67° C | 63% | 1007.2 hPa | - | - | - | - |
| 1777744051 | 12.22° C | 61% | 1007.3 hPa | - | - | - | - |
| 1777742961 | 13.33° C | 60% | 1008.6 hPa | - | - | - | - |
| 1777741866 | 13.89° C | 59% | 1007.6 hPa | - | - | - | - |
| 1777740766 | 14.44° C | 58% | 1007.6 hPa | - | - | - | - |
| 1777739791 | 15.56° C | 58% | 1007.3 hPa | - | - | - | - |
| 1777738716 | 15.56° C | 57% | 1008.2 hPa | - | - | - | - |
| 1777737598 | 16.11° C | 56% | 1007.8 hPa | - | - | - | - |
| 1777736519 | 16.67° C | 56% | 1008.8 hPa | - | - | - | - |
| 1777735536 | 17.22° C | 56% | 1008.4 hPa | - | - | - | - |
| 1777734466 | 18.33° C | 55% | 1008.9 hPa | - | - | - | - |
| 1777733396 | 17.78° C | 55% | 1009.9 hPa | - | - | - | - |
| 1777732341 | 17.22° C | 55% | 1008.9 hPa | - | - | - | - |
| 1777731281 | 17.78° C | 54% | 1009.6 hPa | - | - | - | - |
| 1777730201 | 17.78° C | 54% | 1008.6 hPa | - | - | - | - |
| 1777729151 | 18.89° C | 53% | 1009.5 hPa | - | - | - | - |
| 1777727996 | 19.44° C | 53% | 1010.1 hPa | - | - | - | - |
* Rain since midnight (hover to see other rain measurements)
** Current wind speed in m/s (hover to see current wind gust speed)